Content
SEND FEEDBACK

Daily
Averages
Monthly
Summary
United States of America

EDWARDS, NEW YORK


Home > North America > United States > New York
Elevation: 850 feet     Latitude: 44 16N     Longitude: 075 12W

WEATHER
 
SELECT A DAY
Number of Records: 269,124;   Date Range: 1/1/95 - 7/7/14
 
SHARE

PRINT THIS DATA

[ ← Previous Day ]
WEATHER ALMANAC - JANUARY 31, 2013
[ Next Day → ]
[ °C ]   °F
Weather ElementAverageHighLow
Temperature32.7 °F53.6 °F (3:27 am)18.9 °F (11:55 pm)
Dewpoint29.1 °F51.8 °F (12:28 am)10.8 °F (4:55 pm)
Humidity87.2 %100 % (12:28 am)52 % (3:55 pm)
Barometer29.19 in29.62 in (11:55 pm)28.92 in (3:11 am)
Wind Speed21.5 mph33.4 mph (7:01 am)
Wind Gust50.6 mph (7:20 am)
Weather ElementAverage
Visibility5.4 mi
Wind DirectionWSW (251.1 °)

Weather ElementTotal
Precipitation0.94 in
Heating Degree Days28.8 (Base 65)
Averaged from 142 records on January 31, 2013
WEATHER CONDITIONS BREAKOUT
WIND DIRECTION BREAKOUT
WEATHER BY HOUR - JANUARY 31, 2013
[ °C ]   °F
Local TimeTemperatureDewpointHumidityBarometerVisibilityWind DirectionWind SpeedGust SpeedPrecipitationEventsConditions
12:28 AM51.8 °F51.8 °F100 %29.08 in10.0 miSE (140°)13.8 mphRainLight Rain
12:45 AM51.8 °F51.8 °F100 %29.06 in8.0 miSSE (150°)16.1 mph23.0 mphRainRain
12:55 AM51.1 °F51.1 °F100 %29.04 in8.0 miSE (140°)13.8 mph0.16 inRainRain
1:13 AM51.8 °F51.8 °F100 %29.03 in8.0 miSSE (150°)17.3 mphRainRain
1:24 AM51.8 °F51.8 °F100 %29.00 in7.0 miSE (140°)25.3 mphRainRain
1:33 AM51.8 °F51.8 °F100 %28.98 in8.0 miSE (130°)23.0 mphRainLight Rain
1:55 AM51.1 °F51.1 °F100 %28.98 in10.0 miSSE (150°)15.0 mph21.9 mph0.18 inRainLight Rain
2:55 AM50.4 °F50.4 °F100 %28.93 in10.0 miSSE (160°)12.7 mph0.09 inRainLight Rain
3:11 AM51.8 °F51.8 °F100 %28.92 in6.0 miSSW (210°)11.5 mph19.6 mphRainRain
3:13 AM51.8 °F51.8 °F100 %28.93 in5.0 miWSW (240°)10.4 mph19.6 mphRainHeavy Rain
3:16 AM51.8 °F51.8 °F100 %28.93 in4.0 miWSW (240°)15.0 mph21.9 mphRainLight Rain
3:27 AM53.6 °F51.8 °F94 %28.93 in10.0 miWest (260°)23.0 mph38.0 mphRainLight Rain
3:28 AM51.8 °F51.8 °F100 %28.93 in10.0 miWest (260°)20.7 mph38.0 mphRainRain
3:29 AM51.8 °F51.8 °F100 %28.93 in10.0 miWest (260°)18.4 mph38.0 mphRainRain
3:34 AM50.0 °F50.0 °F100 %28.95 in8.0 miWSW (250°)19.6 mph38.0 mphRainRain
3:36 AM50.0 °F50.0 °F100 %28.96 in7.0 miWSW (250°)20.7 mph33.4 mphRainRain
3:41 AM48.2 °F48.2 °F100 %28.96 in6.0 miWSW (250°)23.0 mph35.7 mphRainRain
3:55 AM45.0 °F44.4 °F98 %29.00 in5.0 miWSW (250°)25.3 mph39.1 mph0.18 inRainRain
3:58 AM44.6 °F44.6 °F100 %29.01 in6.0 miWSW (250°)26.5 mph39.1 mphRainRain
4:06 AM42.8 °F42.8 °F100 %28.97 in7.0 miWest (260°)19.6 mph39.1 mphRainRain
4:11 AM42.8 °F42.8 °F100 %28.99 in8.0 miWSW (250°)24.2 mph35.7 mphRainRain
4:17 AM42.8 °F42.8 °F100 %29.01 in9.0 miWSW (250°)19.6 mph35.7 mphRainRain
4:31 AM41.0 °F41.0 °F100 %28.98 in7.0 miWSW (250°)21.9 mph34.5 mphRainRain
4:36 AM41.0 °F41.0 °F100 %29.00 in7.0 miWest (260°)16.1 mph34.5 mphRainRain
4:39 AM41.0 °F41.0 °F100 %29.00 in8.0 miWest (260°)23.0 mph33.4 mphRainRain
4:51 AM41.0 °F39.2 °F93 %28.99 in10.0 miWest (260°)18.4 mph31.1 mphRainLight Rain
4:55 AM40.1 °F39.9 °F99 %29.00 in10.0 miWSW (250°)20.7 mph29.9 mph0.13 inRainLight Rain
5:08 AM39.2 °F39.2 °F100 %29.01 in7.0 miWSW (250°)25.3 mph38.0 mphRainRain
5:14 AM37.4 °F37.4 °F100 %29.00 in7.0 miWest (260°)17.3 mph38.0 mphRainRain
5:23 AM37.4 °F35.6 °F93 %29.01 in6.0 miWSW (250°)21.9 mph36.8 mphRainRain
5:25 AM37.4 °F35.6 °F93 %29.01 in6.0 miWSW (250°)23.0 mph36.8 mphRainRain
5:33 AM35.6 °F35.6 °F100 %29.00 in7.0 miWSW (250°)17.3 mph32.2 mphRainRain
5:55 AM36.0 °F35.8 °F99 %29.02 in10.0 miWSW (240°)19.6 mph32.2 mph0.12 inRainLight Rain
6:01 AM35.6 °F35.6 °F100 %29.02 in10.0 miWSW (240°)21.9 mph35.7 mphRainLight Rain
6:11 AM35.6 °F35.6 °F100 %29.01 in10.0 miWSW (250°)23.0 mph32.2 mphRainLight Rain
6:27 AM35.6 °F35.6 °F100 %29.02 in8.0 miWSW (250°)21.9 mph34.5 mphOvercast
6:31 AM35.6 °F35.6 °F100 %29.03 in8.0 miWSW (240°)18.4 mph34.5 mphOvercast
6:33 AM35.6 °F35.6 °F100 %29.03 in8.0 miWSW (250°)24.2 mph36.8 mphOvercast
6:34 AM35.6 °F35.6 °F100 %29.03 in7.0 miWSW (250°)27.6 mph36.8 mphOvercast
6:45 AM35.6 °F35.6 °F100 %29.04 in9.0 miWSW (250°)21.9 mph46.0 mphRainLight Rain
6:55 AM35.6 °F35.1 °F98 %29.05 in9.0 miWSW (250°)26.5 mph42.6 mph0.06 inRainLight Rain
7:01 AM35.6 °F35.6 °F100 %29.05 in8.0 miWest (260°)33.4 mph46.0 mphRainLight Rain
7:05 AM35.6 °F33.8 °F93 %29.06 in9.0 miWest (260°)24.2 mph46.0 mphRainLight Rain
7:09 AM35.6 °F33.8 °F93 %29.07 in10.0 miWest (260°)26.5 mph46.0 mphOvercast
7:20 AM33.8 °F32.0 °F93 %29.08 in10.0 miWest (260°)27.6 mph50.6 mphOvercast
7:23 AM33.8 °F30.2 °F87 %29.08 in10.0 miWest (260°)25.3 mph50.6 mphOvercast
7:45 AM33.8 °F28.4 °F81 %29.10 in10.0 miWest (260°)25.3 mph42.6 mphOvercast
7:49 AM33.8 °F26.6 °F75 %29.10 in10.0 miWSW (250°)21.9 mph42.6 mphOvercast
7:52 AM33.8 °F26.6 °F75 %29.11 in10.0 miWSW (250°)23.0 mph42.6 mphOvercast
7:55 AM33.8 °F27.1 °F77 %29.11 in10.0 miWSW (250°)24.2 mph34.5 mph0.02 inOvercast
8:55 AM32.2 °F21.9 °F66 %29.16 in10.0 miWest (260°)26.5 mph49.5 mphMostly Cloudy
9:24 AM32.0 °F21.2 °F64 %29.18 in10.0 miWSW (250°)28.8 mph42.6 mphSnowLight Snow
9:43 AM30.2 °F26.6 °F86 %29.19 in4.0 miWest (260°)20.7 mph39.1 mphSnowLight Snow
9:46 AM30.2 °F26.6 °F86 %29.19 in2.5 miWest (260°)25.3 mph49.5 mphSnowLight Snow
9:49 AM28.4 °F26.6 °F93 %29.19 in2.0 miWest (260°)21.9 mph49.5 mphSnowLight Snow
9:53 AM28.4 °F24.8 °F86 %29.20 in2.5 miWest (260°)26.5 mph49.5 mphSnowLight Snow
9:54 AM28.4 °F24.8 °F86 %29.20 in3.0 miWest (260°)23.0 mph49.5 mphSnowLight Snow
9:55 AM29.1 °F25.3 °F86 %29.20 in4.0 miWest (260°)18.4 mph49.5 mph0.00 inSnowLight Snow
10:01 AM30.2 °F24.8 °F80 %29.21 in9.0 miWSW (250°)17.3 mph36.8 mphSnowLight Snow
10:07 AM30.2 °F24.8 °F80 %29.21 in10.0 miWest (260°)21.9 mph40.3 mphSnowLight Snow
10:09 AM30.2 °F24.8 °F80 %29.20 in10.0 miWest (260°)21.9 mph40.3 mphSnowLight Snow
10:12 AM30.2 °F23.0 °F75 %29.20 in8.0 miWest (260°)27.6 mph40.3 mphSnowLight Snow
10:44 AM28.4 °F23.0 °F80 %29.23 in2.5 miWest (260°)28.8 mph43.7 mphSnowLight Snow
10:45 AM28.4 °F23.0 °F80 %29.23 in1.8 miWest (260°)26.5 mph43.7 mphSnowLight Snow
10:46 AM28.4 °F23.0 °F80 %29.21 in0.1 miWest (260°)24.2 mph43.7 mphSnowLight Snow
10:47 AM28.4 °F23.0 °F80 %29.23 in1.2 miWest (260°)24.2 mph43.7 mphSnowLight Snow
10:48 AM28.4 °F23.0 °F80 %29.23 in1.0 miWSW (250°)25.3 mph43.7 mphSnowLight Snow
10:49 AM28.4 °F24.8 °F86 %29.23 in0.8 miWSW (250°)27.6 mph43.7 mphSnowLight Snow
10:51 AM28.4 °F24.8 °F86 %29.24 in0.5 miWSW (250°)21.9 mph43.7 mphFog-SnowLight Freezing Fog
10:53 AM28.4 °F24.8 °F86 %29.24 in0.5 miWSW (250°)21.9 mph43.7 mphFog-SnowLight Freezing Fog
10:55 AM28.0 °F25.3 °F90 %29.24 in0.5 miWSW (250°)19.6 mph36.8 mph0.00 inFog-SnowLight Freezing Fog
10:57 AM28.4 °F24.8 °F86 %29.24 in0.2 miWSW (250°)17.3 mph36.8 mphFog-SnowLight Freezing Fog
10:59 AM28.4 °F26.6 °F93 %29.24 in0.2 miWSW (250°)23.0 mph34.5 mphFog-SnowHeavy Freezing Fog
11:01 AM28.4 °F26.6 °F93 %29.23 in0.2 miWest (260°)26.5 mph39.1 mphFog-SnowHeavy Freezing Fog
11:03 AM26.6 °F26.6 °F100 %29.23 in0.2 miWSW (250°)21.9 mph39.1 mphFog-SnowLight Freezing Fog
11:04 AM26.6 °F26.6 °F100 %29.23 in0.2 miWSW (250°)23.0 mph39.1 mphFog-SnowLight Freezing Fog
11:07 AM28.4 °F26.6 °F93 %29.23 in0.2 miWSW (250°)26.5 mph41.4 mphFog-SnowLight Freezing Fog
11:08 AM28.4 °F26.6 °F93 %29.23 in0.5 miWSW (250°)25.3 mph41.4 mphFog-SnowLight Freezing Fog
11:10 AM28.4 °F26.6 °F93 %29.23 in0.8 miWSW (250°)26.5 mph41.4 mphSnowLight Snow
11:13 AM28.4 °F26.6 °F93 %29.24 in0.8 miWSW (250°)27.6 mph43.7 mphSnowLight Snow
11:14 AM28.4 °F26.6 °F93 %29.24 in0.5 miWSW (250°)24.2 mph43.7 mphFog-SnowLight Freezing Fog
11:15 AM28.4 °F26.6 °F93 %29.24 in0.5 miWSW (250°)24.2 mph43.7 mphFog-SnowLight Freezing Fog
11:23 AM28.4 °F26.6 °F93 %29.25 in0.8 miWSW (250°)19.6 mph50.6 mphSnowLight Snow
11:25 AM28.4 °F24.8 °F86 %29.24 in1.0 miWSW (250°)25.3 mph50.6 mphSnowLight Snow
11:26 AM28.4 °F24.8 °F86 %29.24 in1.2 miWSW (250°)26.5 mph50.6 mphSnowLight Snow
11:27 AM28.4 °F24.8 °F86 %29.24 in1.5 miWSW (250°)25.3 mph50.6 mphSnowLight Snow
11:30 AM28.4 °F24.8 °F86 %29.24 in1.8 miWest (260°)24.2 mph50.6 mphSnowLight Snow
11:31 AM28.4 °F24.8 °F86 %29.24 in2.0 miWest (260°)21.9 mph50.6 mphSnowLight Snow
11:32 AM28.4 °F24.8 °F86 %29.24 in3.0 miWSW (250°)18.4 mph38.0 mphSnowLight Snow
11:35 AM28.4 °F24.8 °F86 %29.24 in8.0 miWest (260°)19.6 mph38.0 mphMostly Cloudy
11:37 AM28.4 °F23.0 °F80 %29.24 in10.0 miWest (260°)19.6 mph38.0 mphMostly Cloudy
11:38 AM28.4 °F23.0 °F80 %29.24 in10.0 miWest (260°)24.2 mph38.0 mphMostly Cloudy
11:40 AM30.2 °F23.0 °F75 %29.25 in10.0 miWSW (250°)18.4 mph35.7 mphOvercast
11:46 AM28.4 °F21.2 °F74 %29.24 in6.0 miWSW (250°)32.2 mph46.0 mphSnowLight Snow
11:55 AM28.6 °F22.1 °F77 %29.25 in3.0 miWest (260°)19.6 mph46.0 mph0.00 inSnowLight Snow
11:57 AM28.4 °F21.2 °F74 %29.25 in2.5 miWest (260°)21.9 mph42.6 mphSnowLight Snow
11:58 AM28.4 °F23.0 °F80 %29.25 in2.0 miWest (260°)24.2 mph42.6 mphSnowLight Snow
11:59 AM28.4 °F23.0 °F80 %29.25 in1.2 miWest (270°)25.3 mph42.6 mphSnowLight Snow
12:00 PM28.4 °F23.0 °F80 %29.26 in1.0 miWest (260°)24.2 mph42.6 mphSnowLight Snow
12:01 PM28.4 °F23.0 °F80 %29.26 in0.8 miWest (260°)23.0 mph42.6 mphSnowLight Snow
12:02 PM28.4 °F23.0 °F80 %29.26 in0.5 miWest (260°)24.2 mph34.5 mphSnowSnow
12:06 PM26.6 °F24.8 °F93 %29.26 in0.5 miWest (260°)16.1 mph34.5 mphFog-SnowLight Freezing Fog
12:16 PM26.6 °F24.8 °F93 %29.28 in0.5 miWest (270°)16.1 mph32.2 mphFog-SnowLight Freezing Fog
12:17 PM26.6 °F24.8 °F93 %29.28 in0.2 miWest (260°)12.7 mph32.2 mphFog-SnowLight Freezing Fog
12:19 PM26.6 °F24.8 °F93 %29.28 in0.2 miWest (270°)18.4 mph34.5 mphFog-SnowHeavy Freezing Fog
12:23 PM26.6 °F24.8 °F93 %29.29 in0.2 miWest (260°)19.6 mph34.5 mphFog-SnowHeavy Freezing Fog
12:25 PM26.6 °F24.8 °F93 %29.29 in0.2 miWest (260°)15.0 mph34.5 mphFog-SnowLight Freezing Fog
12:26 PM26.6 °F24.8 °F93 %29.28 in0.2 miWest (260°)19.6 mph36.8 mphFog-SnowLight Freezing Fog
12:27 PM26.6 °F24.8 °F93 %29.29 in0.2 miWest (260°)20.7 mph36.8 mphFog-SnowLight Freezing Fog
12:28 PM26.6 °F24.8 °F93 %29.29 in0.2 miWSW (250°)23.0 mph36.8 mphFog-SnowLight Freezing Fog
12:30 PM26.6 °F24.8 °F93 %29.29 in0.5 miWSW (250°)19.6 mph36.8 mphFog-SnowLight Freezing Fog
12:31 PM26.6 °F24.8 °F93 %29.29 in0.5 miWest (260°)18.4 mph36.8 mphFog-SnowLight Freezing Fog
12:32 PM26.6 °F24.8 °F93 %29.29 in0.8 miWest (260°)21.9 mph36.8 mphSnowLight Snow
12:33 PM26.6 °F24.8 °F93 %29.29 in1.0 miWest (270°)24.2 mph36.8 mphSnowLight Snow
12:34 PM26.6 °F24.8 °F93 %29.29 in1.5 miWest (270°)20.7 mph36.8 mphSnowLight Snow
12:35 PM26.6 °F24.8 °F93 %29.29 in2.0 miWest (260°)23.0 mph36.8 mphSnowLight Snow
12:36 PM26.6 °F24.8 °F93 %29.29 in2.5 miWSW (250°)26.5 mph36.8 mphSnowLight Snow
12:37 PM26.6 °F24.8 °F93 %29.29 in2.5 miWest (260°)25.3 mph39.1 mphSnowLight Snow
12:39 PM26.6 °F24.8 °F93 %29.29 in3.0 miWest (270°)21.9 mph39.1 mphSnowLight Snow
12:41 PM26.6 °F23.0 °F86 %29.29 in3.0 miWest (260°)21.9 mph39.1 mphSnowLight Snow
12:43 PM26.6 °F23.0 °F86 %29.30 in4.0 miWest (270°)21.9 mph39.1 mphSnowLight Snow
12:55 PM27.7 °F21.2 °F77 %29.30 in3.0 miWest (270°)23.0 mph35.7 mph0.00 inSnowLight Snow
12:57 PM28.4 °F21.2 °F74 %29.30 in2.5 miWest (270°)21.9 mph35.7 mphSnowLight Snow
1:05 PM26.6 °F21.2 °F80 %29.31 in3.0 miWest (260°)21.9 mph39.1 mphSnowLight Snow
1:12 PM26.6 °F19.4 °F74 %29.30 in4.0 miWest (260°)25.3 mph39.1 mphSnowLight Snow
1:14 PM26.6 °F19.4 °F74 %29.31 in6.0 miWest (260°)20.7 mph39.1 mphLight Drizzle
1:22 PM28.4 °F19.4 °F69 %29.31 in10.0 miWSW (250°)21.9 mph33.4 mphOvercast
1:24 PM28.4 °F19.4 °F69 %29.31 in10.0 miWest (270°)23.0 mph33.4 mphOvercast
1:55 PM27.9 °F16.5 °F62 %29.33 in10.0 miWest (260°)23.0 mph39.1 mph0.00 inLight Drizzle
2:06 PM28.4 °F15.8 °F59 %29.34 in10.0 miWest (270°)27.6 mph36.8 mphOvercast
2:55 PM27.1 °F14.0 °F58 %29.36 in10.0 miWest (270°)24.2 mph39.1 mph0.00 inOvercast
3:04 PM26.6 °F14.0 °F59 %29.36 in9.0 miWest (260°)24.2 mph46.0 mphLight Drizzle
3:29 PM26.6 °F12.2 °F55 %29.38 in10.0 miWest (260°)21.9 mph40.3 mphMostly Cloudy
3:55 PM27.0 °F11.5 °F52 %29.40 in10.0 miWest (270°)18.4 mph34.5 mph0.00 inScattered Clouds
4:55 PM25.3 °F10.8 °F54 %29.45 in10.0 miWest (270°)21.9 mph34.5 mphMostly Cloudy
5:55 PM22.5 °F11.8 °F64 %29.50 in10.0 miWest (270°)12.7 mph28.8 mphScattered Clouds
6:55 PM21.9 °F11.3 °F64 %29.54 in10.0 miWNW (290°)11.5 mph23.0 mphOvercast
7:55 PM21.4 °F11.8 °F67 %29.56 in10.0 miWest (270°)10.4 mph19.6 mphPartly Cloudy
8:55 PM21.2 °F11.3 °F66 %29.58 in10.0 miWest (280°)8.1 mph19.6 mphClear
9:55 PM20.3 °F12.0 °F70 %29.60 in10.0 miWest (280°)10.4 mphClear
10:55 PM19.8 °F11.8 °F71 %29.61 in10.0 miWNW (300°)10.4 mphOvercast
11:55 PM18.9 °F12.2 °F75 %29.62 in10.0 miWNW (300°)10.4 mph17.3 mphMostly Cloudy
Hourly data recorded from KGTB, located miles away from Edwards, New York







STORIES FROM OUR PARTNERS